Home > Weather > Arnsberg > Past weeks

Flag for Germany Weather for the Past 2 Weeks in Arnsberg, North Rhine-Westphalia, Germany

Now
54 °F

Scattered clouds.


Feels Like: 51 °F
Forecast: 35 / 66 °F
Wind: 9 mph from North

Location: Dortmund / Wickede

Current Time: May 1, 2016 at 1:53:04 PM

Latest Report: May 1, 2016 at 12:50 PM


Visibility: N/A

Pressure: 30.27 "Hg

Humidity: 63%

Dew Point: 41 °F

Location of ArnsbergLocation

Historic Weather in Arnsberg — Graph

°F

Arnsberg Temperature Yesterday

Maximum temperature yesterday: 48 °F (at 4:50 PM)
Minimum temperature yesterday: 39 °F (at 8:20 AM)
Average temperature yesterday: 44 °F

High & Low Weather Summary for the Past Weeks

 TemperatureHumidityPressure
High63 °F (Apr 21, 4:50 PM)93% (Apr 20, 7:20 AM)30.48 "Hg (Apr 20, 7:20 AM)
Low32 °F (Apr 20, 5:50 AM)33% (Apr 20, 6:50 PM)29.45 "Hg (Apr 26, 1:50 PM)
Average45 °F65%29.97 "Hg
* Reported Apr 16 12:20 PM — May 1 12:20 PM, Arnsberg, Weather by CustomWeather, © 2016

Note: Actual official high and low records may vary slightly from our data, if they occured in-between our weather recording intervals... More about our weather records

Advertising

Arnsberg Weather History for the Previous 24 Hours

Scroll right to see more
 ConditionsComfort  
Time TempWeatherWind HumidityBarometerVisibility
12:20 PM
Sun, May 1
50 °FPassing clouds.10 mph62%30.30 "HgN/A
11:50 AM50 °FPassing clouds.12 mph62%30.30 "HgN/A
11:20 AM48 °FPassing clouds.10 mph66%30.30 "HgN/A
10:50 AM48 °FScattered clouds.9 mph66%30.27 "HgN/A
10:20 AM46 °FScattered clouds.9 mph66%30.27 "HgN/A
9:50 AM45 °FPartly sunny.9 mph71%30.27 "HgN/A
8:50 AM43 °FBroken clouds.9 mph76%30.27 "HgN/A
8:20 AM41 °FBroken clouds.7 mph81%30.27 "HgN/A
7:50 AM41 °FPartly sunny.7 mph81%30.27 "HgN/A
7:20 AM41 °FBroken clouds.8 mph81%30.24 "HgN/A
6:20 AM41 °FPassing clouds.7 mph87%30.24 "HgN/A
5:50 AM41 °FLight rain. Partly cloudy.5 mph87%30.24 "HgN/A
5:20 AM41 °FLight rain. Passing clouds.3 mph87%30.24 "HgN/A
9:50 PM
Sat, Apr 30
45 °FPassing clouds.5 mph76%30.15 "HgN/A
9:20 PM45 °FPassing clouds.5 mph76%30.15 "HgN/A
8:50 PM45 °FSunny.3 mph76%30.12 "Hg10 mi
8:20 PM46 °FPassing clouds.5 mph71%30.12 "HgN/A
7:50 PM46 °FSunny.6 mph71%30.12 "Hg10 mi
7:20 PM46 °FPassing clouds.6 mph71%30.12 "HgN/A
6:50 PM46 °FScattered clouds.7 mph71%30.12 "HgN/A
6:20 PM48 °FScattered clouds.7 mph66%30.12 "HgN/A
5:50 PM48 °FPassing clouds.5 mph66%30.12 "HgN/A
5:20 PM48 °FPassing clouds.6 mph66%30.09 "HgN/A
4:50 PM48 °FPassing clouds.5 mph66%30.09 "HgN/A
4:20 PM46 °FScattered clouds.5 mph66%30.09 "HgN/A
3:50 PM46 °FScattered clouds.6 mph71%30.09 "HgN/A
3:20 PM46 °FScattered clouds.3 mph71%30.09 "HgN/A
2:50 PM46 °FScattered clouds.6 mph71%30.09 "HgN/A
2:20 PM45 °FDrizzle. Broken clouds.3 mph76%30.09 "Hg6 mi
1:50 PM45 °FDrizzle. Broken clouds.3 mph76%30.09 "Hg6 mi
1:20 PM45 °FDrizzle. Partly sunny.2 mph76%30.09 "HgN/A
Weather by CustomWeather, © 2016

See weather overviewHow to use our weather pages